COSMOS 1275 DEB, 42161

Orbit data source: Space-Track

COSMOS 1275 DEB, 42161 is space debris in LEO originally from a launch on Thu, 04 Jun 1981 UTC launched from the Plesetsk Missile And Space Complex (PKMTR). Debris objects in space refer to the collection of defunct objects orbiting the Earth. Examples of debris include non-operational satellites, rocket bodies, and fragments generated from explosions, collisions, or faulty payload assembly.

Loading next visibility...
Identifier
42161, 1981-053RZ
Orbit
LEO
Country
Flag of CISCIS
Related business
Manufacturer
Unknown
Mission
Spacecraft
Bus & Motor
Unknown
Mass
Unknown
Launch date (UTC)
1981-06-04 (45 years ago)
Launch vehicle
Unknown
Launch site
Plesetsk Missile And Space Complex (PKMTR)
Object type
Payload
Rocket body
Debris
Shape & HBR
Unknown shape, 0.1 m
Radar Cross Section
Small (<0.1 m²)

Expand to show TLE details & history
Last TLE update: 1 day ago

TLE from 1 day ago
0 COSMOS 1275 DEB
1 42161U 81053RZ  26206.31504671  .00001201  00000-0  82836-3 0  9998
2 42161  82.9231  57.1155 0050081 274.6127  84.9323 13.97936142 60660
Epoch: 2026-07-25T07:33Z
TLE epoch observation values (Epoch: 2026-07-25T07:33:40.035Z)
Latitude
-0°
Longitude
0.66959°
Altitude
900.842 km
Speed
7.403 km/s
True Right ascension
03h 48m 27s
True Declination
0° 00' 00"
Sunlit
Object was in daylight at epoch
Visualization orbit readout
Latitude
Unknown
Longitude
Unknown
Altitude
Unknown
Speed
Unknown
Apparent Right ascension
Unknown
Apparent Declination
Unknown
Sunlit
N/A
Visualization observer readout
Local Sidereal Time
00:10:52
Azimuth
Unknown
Elevation
Unknown
Doppler factor
Unknown
Orbital elements
Apogee altitude
934.508 km
Perigee altitude
861.629 km
Semi-major axis
7,276.205 km
Eccentricity
0.00501
Inclination
82.9231°
RAAN
57.1155°
Arg. of periapsis
274.6127°
True anomaly
85.50425°
Mean anomaly
84.9323°
Eccentric anomaly
85.21824°
Mean motion
3.49692 °/min
Orbital period
102.95 mins
BSTAR
0.00082836
Loading maneuver chart data...
Computing Atmospheric mass density...
Loading historical data...
Loading historical data...
Loading historical data...
Loading historical data...
Loading historical data...
Loading historical data...
Loading historical data...

Documentation

Showing up to 5 results
|